Location: Bois de la Silve
(44.4667°N, 6.7833°E)
Time: 18:01:28
(UTC+00:00)

Envisat - Visible Passes

Search period start: 03 August 2021 00:00
Search period end: 13 August 2021 00:00
Orbit: 764 x 766 km, 98.2° (Epoch: 03 August)

Date Brightness Start Highest point End Pass type
(mag) Time Alt. Az. Time Alt. Az. Time Alt. Az.
03 Aug 5.8 03:33:18 10° NE 03:36:04 15° E 03:38:49 10° ESE visible
06 Aug 6.1 03:22:54 10° ENE 03:24:25 11° E 03:25:56 10° ESE visible
08 Aug 5.6 03:46:24 10° NE 03:50:05 20° E 03:53:46 10° SE visible
11 Aug 5.8 03:35:27 10° NE 03:38:29 16° E 03:41:30 10° SE visible
